Weather History for Red Bluff, CA

Change the Weather History Date:

Wednesday, May 8, 2013

  Actual Average Record
Temperature  
Mean Temperature 70 °F -  
Max Temperature 79 °F 79 °F 96 °F (2001)
Min Temperature 60 °F 52 °F 35 °F (1948)
Cooling Degree Days 4    
Growing Degree Days 20 (Base 50)    
Moisture  
Dew Point 52 °F    
Average Humidity 55    
Maximum Humidity 78    
Minimum Humidity 29    
Precipitation  
Precipitation 0.00 in - - ()
Sea Level Pressure  
Sea Level Pressure 30.04 in    
Wind  
Wind Speed 3 mph (SSE)    
Max Wind Speed 10 mph    
Max Gust Speed -    
Visibility 10 miles    
Events      
Averages and records for this station are not official NWS values.
T = Trace of Precipitation, MM = Missing Value Source: NWS Daily Summary

Daily Weather History Graph

Daily Weather History Graph

Search for Another Location

Airport:

Trip Planner

Search our weather history database for the weather conditions in past years. The results will help you decide how hot, cold, wet, or windy it might be!

Date:

Astronomy

May. 08, 2013 Rise Set
Actual Time 6:00 AM PDT 8:11 PM PDT
Civil Twilight 5:30 AM PDT 8:41 PM PDT
Nautical Twilight 4:53 AM PDT 9:18 PM PDT
Astronomical Twilight 4:12 AM PDT 9:59 PM PDT
Moon 5:11 AM PDT (5/8) 7:14 PM PDT (5/8)
Length of Visible Light 15h 11m
Length of Day
14h 11m
Waning Crescent, 1% of the Moon is Illuminated
May 8
Waning Crescent
May 9
New
May 17
First Quarter
May 24
Full
May 31
Last Quarter

Hourly Weather History & Observations

Time (PDT) Temp. Dew Point Humidity Pressure Visibility Wind Dir Wind Speed Gust Speed Precip Events Conditions
12:54 AM 64.0 °F 53.1 °F 67% 29.99 in 10.0 mi Calm Calm - N/A   Scattered Clouds
1:54 AM 64.0 °F 53.1 °F 67% 30.00 in 10.0 mi Calm Calm - N/A   Overcast
2:54 AM 62.1 °F 53.1 °F 72% 30.00 in 10.0 mi Calm Calm - N/A   Overcast
3:54 AM 63.0 °F 53.1 °F 70% 30.00 in 10.0 mi Calm Calm - N/A   Overcast
4:54 AM 62.1 °F 54.0 °F 75% 30.00 in 10.0 mi Calm Calm - N/A   Overcast
5:54 AM 61.0 °F 54.0 °F 78% 30.01 in 10.0 mi Calm Calm - N/A   Mostly Cloudy
6:54 AM 63.0 °F 54.0 °F 72% 30.04 in 10.0 mi Calm Calm - N/A   Overcast
7:54 AM 64.9 °F 54.0 °F 68% 30.05 in 10.0 mi SSW 3.5 mph - N/A   Overcast
8:54 AM 66.9 °F 51.1 °F 57% 30.07 in 10.0 mi South 10.4 mph - N/A   Mostly Cloudy
9:54 AM 68.0 °F 51.1 °F 55% 30.08 in 10.0 mi SSE 10.4 mph - N/A   Mostly Cloudy
10:54 AM 68.0 °F 48.9 °F 50% 30.09 in 10.0 mi SSE 9.2 mph - N/A   Overcast
11:54 AM 71.1 °F 50.0 °F 47% 30.09 in 10.0 mi ESE 10.4 mph - N/A   Mostly Cloudy
12:54 PM 72.0 °F 50.0 °F 46% 30.06 in 10.0 mi SE 6.9 mph - N/A   Scattered Clouds
1:54 PM 73.9 °F 50.0 °F 43% 30.06 in 10.0 mi Variable 6.9 mph - N/A   Overcast
2:54 PM 73.9 °F 50.0 °F 43% 30.04 in 10.0 mi Variable 4.6 mph - N/A   Partly Cloudy
3:54 PM 77.0 °F 50.0 °F 39% 30.02 in 10.0 mi SE 9.2 mph - N/A   Clear
4:54 PM 77.0 °F 51.1 °F 40% 30.00 in 10.0 mi ESE 4.6 mph - N/A   Clear
5:54 PM 75.9 °F 51.1 °F 42% 30.00 in 10.0 mi SE 8.1 mph - N/A   Clear
6:54 PM 75.0 °F 52.0 °F 44% 30.00 in 10.0 mi SSE 8.1 mph - N/A   Clear
7:54 PM 73.0 °F 53.1 °F 49% 30.02 in 10.0 mi South 5.8 mph - N/A   Scattered Clouds
8:54 PM 72.0 °F 53.1 °F 51% 30.04 in 10.0 mi SSE 4.6 mph - N/A   Partly Cloudy
9:54 PM 70.0 °F 53.1 °F 55% 30.06 in 10.0 mi WNW 4.6 mph - N/A   Mostly Cloudy
10:54 PM 70.0 °F 53.1 °F 55% 30.06 in 10.0 mi SE 3.5 mph - N/A   Mostly Cloudy
11:54 PM 64.0 °F 53.1 °F 67% 30.06 in 10.0 mi NNW 6.9 mph - N/A   Partly Cloudy